Location: ????????
(60.5616°N, 46.8254°E)
Time: 02:34:24
(UTC+00:00)

Cosmos 1898 Rocket - Pass Details

Date: 18 February 2020
Orbit: 754 x 783 km, 74.0° (Epoch: 05 April)

Event Time Altitude Azimuth Distance (km) Brightness Sun altitude
Rises 15:58:44 0° 325° (NW) 3,228 7.4 -16.5°
Reaches altitude 10° 16:01:10 10° 329° (NNW) 2,298 6.5 -16.8°
Maximum altitude 16:06:18 57° 48° (NE) 894 3.6 -17.4°
Enters shadow 16:08:38 31° 114° (ESE) 1,314 4.2 -17.7°
